CAPE
639 1355 2205 1816 1430 1698 1590 2018 2582 2751 2753 2800 3074 2762 2786 2694 2837 2549 2890 2615 2395 2560 2630 2032 1750 2080 2714 2778 2883 2819 2875 3220 3171 2442 2432 2503 2541 2539 2436 2588 2643 2495 2466
706 1399 2272 2103 1760 1632 1851 1986 2386 2891 2751 2560 2595 2262 2008 2085 2101 2721 2830 2287 2251 2530 2380 2464 2337 1518 2390 2473 2917 2948 2768 2927 2992 2662 2609 2689 2856 2433 1893 1762 1865 1979 2274
890 1338 1773 2205 2031 1679 1902 2005 1949 2371 2278 2284 2186 2017 1784 1654 1683 1620 1852 2467 2243 2057 2129 2715 2573 2897 1781 2689 2323 2382 2539 2763 3394 2669 2356 1712 2544 3113 2883 2887 3030 2888 2517
655 1277 1546 2193 2318 1963 1750 1871 1842 1718 1958 2006 1909 1893 1860 1770 1704 1508 1520 1559 1686 2649 2220 1927 2074 2395 2634 2019 2790 2949 2589 2931 2912 2480 1969 1796 1694 1844 1801 1800 1784 1685 1615
794 1346 1554 2496 2548 1949 1703 1708 1792 1575 1708 1889 1802 1784 1735 1611 1448 1256 1173 1252 1379 1535 1962 2439 1859 1855 2094 2161 1958 2229 2317 2453 2494 2127 1069 1693 2103 2766 3143 3166 3075 3001 2839
1064 1208 2133 2360 1904 1931 1774 1772 1730 1669 1625 1787 1771 1670 1553 1271 1282 1481 1649 1782 1799 1628 1512 1717 2444 1929 1736 1645 1815 1880 2069 2203 1816 1608 1168 1962 2022 2271 2152 2024 1880 1758 1836
1128 1370 1665 2442 2572 2207 1933 1756 2000 1966 1950 1821 1756 1473 1405 1857 1871 1321 1652 1591 1616 1678 1501 1469 1679 2092 2224 1965 1604 1705 1734 1858 1630 1442 1350 1281 1112 2909 2517 2566 2256 2547 2999
1236 1363 1593 2215 2313 2689 2177 2370 2065 1936 1931 1765 1596 1810 1791 1745 1336 1190 1197 1174 1327 1373 1529 1318 1501 1705 1685 1963 2251 2079 2118 1752 1474 1107 552 691 1730 3227 3499 3053 2162 1760 1664
1444 1462 1360 1485 1607 2306 2726 2132 2042 1869 1788 1721 1592 1479 1424 1264 1360 1443 1120 998 1280 1479 1426 1492 1511 1594 1681 1755 1981 2462 2535 1735 1117 763 776 1199 2407 3478 3302 2882 2621 2146 1757
1270 1591 1456 1230 1376 1978 1832 2002 1944 1829 1648 1519 1511 1719 1696 1603 1353 614 222 789 1031 1208 1440 1312 1525 1502 1619 1793 2043 2091 2193 1666 1307 941 1598 1562 2658 3228 3163 2720 2935 2830 2265
1235 1228 1233 1079 1266 1320 1352 1542 2002 1690 1562 1755 1071 1190 239 0 0 0 40 172 974 1070 1263 1217 1391 1444 1554 1638 1753 2031 1881 882 1103 930 874 1491 1106 2430 2521 2970 2670 3073 3011
766 753 940 1020 1107 1069 993 1015 1067 1313 363 60 1 0 11 0 0 10 0 86 910 1088 1170 1148 1244 1274 1442 1200 1085 1560 990 370 393 950 490 662 827 2192 2063 3202 2965 3243 3056
613 706 735 785 970 786 917 816 303 7 0 0 0 0 0 0 0 0 0 0 3 714 631 741 1127 1126 1194 706 615 356 652 546 535 753 1068 1329 1791 1840 2422 3561 3467 3095 3248
467 609 443 767 910 716 863 647 113 0 0 0 0 0 0 0 0 14 0 0 0 38 182 302 380 706 792 627 507 271 33 458 328 377 746 1045 1761 2099 2397 3497 3221 3294 2880
266 415 384 745 783 695 422 74 20 0 0 0 0 0 0 2 5 19 2 0 0 4 193 215 283 357 397 386 71 0 22 205 422 505 429 932 1596 2629 2999 3393 3386 3013 3010
237 337 543 741 620 601 176 0 0 0 0 0 0 0 0 0 12 49 36 7 16 12 121 80 192 286 292 309 161 151 144 378 178 491 390 432 1117 2648 2609 3310 3209 2698 2609
132 308 499 650 531 587 162 0 0 0 0 0 0 0 0 0 3 143 207 131 122 115 139 60 198 362 313 293 293 271 253 360 437 439 335 670 958 2035 2658 2907 2898 2980 2710
101 225 520 848 700 446 253 0 0 0 0 57 69 25 89 153 176 334 230 186 175 201 268 138 322 337 229 233 195 297 361 286 319 260 295 502 717 1100 2440 3060 2897 2596 2878
117 209 709 936 875 577 432 147 41 99 17 29 115 98 72 213 188 234 301 421 448 389 324 319 602 483 518 397 428 347 356 276 263 404 91 226 448 1041 914 1817 2697 2738 2580
112 338 454 518 765 779 590 761 615 257 123 170 303 229 269 279 286 197 307 310 19 88 150 338 445 419 526 316 1112 84 39 58 50 9 63 270 580 714 937 937 1516 2270 2938
292 343 311 572 587 1098 973 897 882 566 50 32 404 404 392 353 286 446 343 109 0 23 210 289 327 208 132 475 273 330 280 10 0 0 0 0 1 453 878 967 1163 1507 1515
488 454 423 649 891 1276 1177 957 832 726 488 377 194 90 198 701 680 687 375 178 164 169 360 520 436 108 315 205 212 257 162 0 0 0 0 0 0 48 510 778 1066 1368 1277
697 646 543 670 919 1118 1145 732 593 416 244 320 294 63 100 736 897 514 545 372 419 302 391 585 411 386 483 138 115 152 75 53 0 0 118 132 7 0 193 449 1211 1131 1066
809 983 824 670 921 970 921 911 993 777 370 210 415 256 216 285 53 2 34 127 379 469 329 434 502 506 424 326 115 48 208 1 0 9 174 1 40 87 0 335 1268 1066 1048
789 1317 1090 1294 975 1066 1178 1187 1058 816 558 419 799 518 560 93 0 0 0 0 47 364 607 915 620 504 319 205 281 312 218 63 59 140 119 1 0 0 0 0 356 627 1312
1169 1453 1536 1863 1453 1327 1535 1781 1376 1063 1002 1010 11 0 43 155 0 0 0 0 0 508 318 232 780 765 479 143 151 150 19 29 67 60 4 0 0 0 0 5 196 319 563
CIN
0 -2 0 0 0 0 -2 0 0 0 0 0 0 0 0 0 0 0 0 0 0 0 0 0 0 0 0 0 0 0 0 0 0 0 0 0 0 0 0 0 0 0 0
-4 -1 0 0 0 0 0 0 0 0 0 0 -1 -2 -5 -5 -1 0 0 0 0 0 0 0 0 -1 0 0 0 0 0 0 0 0 0 0 0 0 -9 -21 -18 -6 0
-1 0 0 0 0 0 0 0 0 0 0 -1 -2 -2 -3 -9 -3 0 0 0 0 0 0 0 0 0 -8 0 0 0 0 0 0 0 -1 -24 -2 0 0 0 0 0 0
-31 -2 0 0 0 0 0 0 0 -2 -2 0 -1 0 -3 -4 -5 -2 -1 0 0 0 0 0 0 0 0 -11 0 0 0 0 0 0 -15 -18 -16 -6 -9 -11 -10 -24 -34
-17 -1 0 0 0 0 0 0 0 -5 -1 0 0 0 -2 -3 -10 -11 -16 -12 -5 -2 0 0 0 -1 0 -1 -4 -1 -3 -1 0 -4 -40 -34 -14 0 0 0 0 0 0
-5 -1 0 0 0 0 0 0 0 -1 0 0 0 0 -1 -13 -15 -3 -1 0 -1 0 -9 -1 0 0 -8 -6 0 -7 0 -4 -7 -18 -51 -24 -30 -13 -8 -8 -10 -16 -8
-3 -1 -1 0 0 0 0 0 0 0 0 0 0 -1 -2 0 0 -11 -1 -12 -5 -4 -6 -6 -1 -1 0 -8 -11 -3 -7 -14 -37 -73 -55 -79 -99 -8 -4 0 -1 0 0
-17 -1 -1 0 0 0 0 0 0 0 0 0 0 0 0 0 -3 -12 -12 -13 -12 -7 -1 -6 -3 0 -5 -12 -8 -8 -10 -11 -35 -94 -150 -139 -68 -9 0 0 -5 -28 -33
-29 -8 -1 -1 -1 0 0 0 0 0 0 0 0 0 0 0 -1 -6 -19 -20 -12 -4 0 0 -1 0 -1 -10 -21 -9 -12 -14 -94 -140 -88 -96 -23 -6 0 -2 0 -10 -28
-32 -10 -14 -14 -3 -3 0 0 0 0 0 0 0 0 -2 -3 -8 -49 -92 -38 -12 -6 0 0 0 0 0 -4 -9 -14 -15 -8 -56 -91 -70 -86 -11 -2 0 0 0 0 -3
-20 -34 -42 -42 -20 -18 -14 -4 -2 0 0 0 -13 -25 -129 0 0 0 -178 -106 -22 -6 0 0 0 0 0 0 -2 -6 -11 -96 -89 -136 -133 -77 -107 -5 -2 0 0 0 0
-91 -88 -64 -53 -36 -32 -30 -34 -28 -13 -81 -143 -26 0 -246 0 0 -100 0 -142 -45 -17 -1 -4 0 0 -1 -18 -30 -12 -78 -142 -171 -114 -183 -124 -85 -19 -15 0 0 0 0
-158 -111 -96 -81 -53 -77 -60 -69 -113 -242 0 0 0 0 0 0 0 0 0 0 -27 -70 -57 -33 -9 -8 -10 -63 -83 -136 -99 -124 -155 -125 -86 -86 -41 -45 -11 0 0 0 0
-162 -137 -137 -107 -82 -91 -68 -83 -163 0 0 0 0 0 0 0 0 -193 0 0 0 -237 -133 -97 -69 -35 -55 -84 -101 -159 -215 -148 -183 -193 -141 -107 -77 -44 -18 0 0 0 -2
-191 -171 -161 -118 -111 -113 -141 -218 -256 0 0 0 0 0 0 -157 -298 -230 -64 0 0 -341 -140 -107 -95 -91 -109 -112 -174 0 -230 -161 -150 -159 -218 -125 -82 -22 -4 0 -1 -1 0
-204 -205 -156 -118 -156 -128 -202 -37 -46 0 0 0 0 0 0 0 -180 -190 -228 -212 -333 -298 -157 -160 -111 -115 -123 -136 -130 -136 -154 -168 -212 -170 -228 -216 -126 -31 -19 0 0 -7 -3
-221 -228 -179 -156 -164 -145 -224 0 0 0 0 0 0 0 0 0 -152 -148 -170 -193 -183 -188 -138 -194 -117 -88 -110 -128 -136 -129 -153 -168 -171 -180 -242 -273 -186 -87 -33 -2 -2 -3 -10
-188 -200 -167 -102 -138 -175 -200 0 0 0 0 -136 -133 -170 -119 -113 -120 -95 -122 -152 -132 -109 -123 -143 -115 -87 -115 -124 -93 -86 -139 -187 -185 -203 -203 -224 -231 -147 -73 -26 -18 -19 -12
-229 -217 -173 -115 -140 -158 -167 -214 -255 -224 -272 -239 -150 -139 -118 -81 -90 -99 -96 -83 -78 -83 -85 -98 -53 -79 -69 -80 -78 -103 -159 -218 -207 -146 -252 -251 -187 -129 -164 -105 -63 -41 -24
-229 -217 -178 -168 -147 -149 -147 -116 -115 -170 -214 -186 -139 -123 -99 -98 -101 -105 -90 -89 -175 -128 -109 -82 -81 -95 -103 -84 -50 -170 -278 -255 -262 -138 -250 -186 -150 -112 -120 -157 -125 -88 -43
-186 -206 -209 -167 -181 -119 -95 -88 -70 -100 -201 -225 -146 -126 -112 -92 -86 -96 -116 -142 0 -144 -72 -92 -97 -167 -120 -97 -112 -96 -157 -334 0 0 0 0 -25 -193 -150 -133 -157 -151 -138
-199 -213 -228 -192 -182 -138 -114 -109 -101 -112 -141 -174 -150 -179 -183 -81 -65 -85 -107 -148 -122 -117 -80 -86 -76 -173 -125 -145 -89 -108 -81 0 0 0 0 0 0 -400 -213 -130 -135 -174 -192
-203 -234 -240 -228 -197 -163 -140 -148 -155 -189 -205 -200 -223 -300 -247 -113 -80 -96 -90 -105 -94 -115 -95 -73 -86 -88 -71 -152 -190 -120 -160 -114 0 0 -243 -297 -195 0 -338 -213 -144 -150 -212
-231 -200 -204 -236 -207 -180 -143 -135 -120 -129 -183 -257 -210 -232 -218 -254 -373 -88 -431 -232 -96 -89 -127 -115 -107 -85 -96 -73 -167 -288 -152 -59 0 -20 -189 -60 -359 -339 0 -337 -140 -133 -180
-223 -184 -207 -194 -194 -149 -120 -111 -130 -161 -212 -224 -173 -187 -177 -377 0 0 0 0 -286 -142 -108 -74 -87 -80 -131 -72 -98 -110 -119 -207 -165 -105 -134 -43 0 0 0 0 -276 -253 -127
-138 -164 -181 -181 -200 -134 -128 -90 -107 -134 -152 -170 -123 0 -62 -366 0 0 0 0 0 -154 -169 -183 -80 -64 -107 -159 -144 -133 -183 -199 -215 -187 -193 -87 0 0 0 -250 -332 -288 -221
Wind_Speed
8 9 17 18 19 19 19 19 18 17 18 18 18 18 19 18 17 16 15 14 14 13 12 13 14 14 15 15 16 17 17 17 17 18 16 15 15 14 14 14 14 11 15
13 12 19 19 19 18 18 17 17 16 17 17 17 17 17 17 17 15 14 14 13 13 13 12 13 14 15 15 13 15 16 15 15 14 13 11 13 14 14 13 13 11 13
13 13 16 18 19 18 17 17 16 17 17 17 16 16 15 16 16 14 13 12 13 13 12 12 12 11 13 14 14 13 13 13 13 15 12 4 6 13 12 13 12 13 13
14 11 14 18 18 18 17 16 15 15 16 15 14 14 14 13 13 12 12 10 10 11 12 11 11 10 10 10 10 10 11 11 13 13 4 4 8 12 12 11 11 11 12
13 11 14 18 18 19 18 17 15 14 14 13 12 12 12 11 10 9 9 9 8 8 9 10 10 9 8 7 7 8 9 10 13 10 3 2 4 10 11 10 9 10 10
13 12 17 20 20 19 18 17 15 14 13 13 12 11 10 10 9 7 6 6 6 6 6 6 7 7 7 6 6 5 6 7 7 2 5 5 3 11 11 11 9 9 9
13 12 14 19 18 18 18 17 15 14 13 13 12 10 9 8 8 5 5 5 4 4 4 2 2 4 3 4 4 5 7 7 3 2 6 7 6 12 12 11 9 8 8
16 13 12 18 19 18 18 17 15 14 13 12 11 9 9 8 7 4 3 3 4 3 2 2 2 2 3 4 5 5 7 6 2 1 7 5 8 13 13 12 10 9 9
15 14 11 11 15 18 16 16 15 14 12 11 9 8 8 7 5 5 4 2 3 4 2 2 4 4 4 4 5 7 7 4 4 2 6 3 11 12 13 13 12 10 10
13 12 11 9 9 8 10 17 16 15 15 13 11 7 9 8 5 6 6 3 0 3 3 4 5 5 5 5 7 9 6 4 2 4 3 4 10 12 11 12 13 12 11
9 9 10 8 6 7 6 10 14 16 13 13 11 11 7 3 3 4 4 2 0 2 3 5 6 6 7 7 6 9 7 2 2 3 2 8 6 11 12 13 13 13 13
12 10 8 8 9 8 5 4 4 4 4 4 3 3 3 5 3 3 2 2 1 3 4 7 8 8 7 1 1 7 2 4 4 3 3 7 11 11 14 15 15 15 15
15 11 11 10 8 9 5 4 2 2 3 2 2 3 3 2 2 1 0 1 1 2 1 4 4 2 4 3 2 3 4 4 2 3 5 11 17 18 16 15 16 17 16
14 13 11 12 11 9 6 6 5 3 3 3 4 5 2 1 3 3 1 1 1 2 3 4 2 4 5 5 6 5 5 4 3 3 4 6 10 17 18 18 17 19 17
12 13 12 11 11 9 8 5 4 4 4 4 4 5 4 4 4 3 1 3 2 1 2 4 4 4 4 4 4 5 6 5 5 3 3 10 10 14 16 19 18 19 18
13 12 12 12 11 9 7 6 5 4 5 4 4 4 5 4 4 3 3 4 3 3 3 3 4 4 4 4 6 8 8 7 6 8 5 5 11 13 14 19 18 18 19
13 13 13 12 11 10 8 6 5 4 4 4 4 6 6 5 4 5 3 3 2 3 4 4 4 4 3 4 7 7 7 8 7 9 6 4 5 17 18 19 19 19 19
11 13 12 11 11 8 7 5 4 4 4 4 4 4 5 5 6 4 3 3 3 3 2 3 3 4 4 4 5 4 3 5 6 8 6 4 3 5 12 19 21 21 19
12 13 12 11 11 9 7 6 5 6 5 4 4 4 6 6 6 4 4 4 4 3 3 3 3 3 3 4 4 3 2 2 2 5 7 8 6 5 5 13 22 20 21
12 12 12 9 11 10 6 5 3 3 4 4 5 4 6 5 8 7 5 5 4 3 4 3 4 3 2 3 2 1 3 4 4 3 4 4 5 10 10 9 8 11 19
11 10 12 8 8 8 5 4 3 3 3 3 4 6 6 5 5 6 5 4 5 4 4 5 1 4 3 1 1 1 3 4 4 4 4 4 5 6 7 8 6 6 6
15 11 9 8 10 9 7 4 3 4 3 3 2 4 3 4 5 6 7 5 5 4 5 4 2 4 4 3 3 1 2 4 2 3 4 4 5 3 3 9 10 9 8
13 13 12 11 11 10 10 3 3 3 0 2 3 2 4 3 3 4 4 3 5 4 4 4 3 5 4 3 4 3 1 4 2 2 4 3 2 1 3 5 7 8 7
14 12 12 12 11 11 10 6 7 5 5 4 3 3 4 7 4 4 5 1 1 3 4 5 4 5 3 4 2 4 1 4 1 4 3 3 4 1 2 3 4 7 8
13 13 12 12 12 12 10 9 7 5 4 2 2 6 5 5 7 2 5 7 3 3 4 5 5 5 3 1 3 1 1 2 2 3 4 4 2 3 3 4 5 4 9
11 13 13 13 13 13 12 9 9 8 5 3 2 4 5 5 4 6 4 3 5 6 7 7 4 5 4 4 3 3 3 3 3 1 3 3 2 5 3 4 4 5 5
Wind_Direction
171 154 135 130 125 120 115 108 103 102 98 95 96 92 93 95 96 97 94 99 107 117 111 109 107 106 105 106 107 110 109 109 111 112 112 119 124 117 109 107 103 104 103
150 145 141 137 132 124 118 114 109 106 103 98 95 96 98 98 94 91 103 100 103 104 105 113 110 111 110 110 109 113 118 117 114 117 122 128 123 121 121 116 112 112 114
143 147 140 141 136 130 125 120 116 113 109 105 105 104 101 97 99 103 98 100 112 107 108 106 107 115 111 113 119 119 125 124 121 111 104 71 116 117 117 121 121 119 116
145 144 143 145 140 136 132 127 124 119 116 114 111 109 105 103 106 106 106 106 104 107 114 111 113 107 106 113 114 118 130 133 132 123 117 137 125 125 127 127 127 124 124
141 143 149 148 145 144 140 135 133 132 127 124 121 117 114 111 109 109 111 113 108 107 105 119 119 124 125 121 127 138 142 148 148 121 105 87 118 135 130 126 126 128 127
141 145 149 151 151 149 146 143 141 140 137 135 131 127 125 123 118 116 119 112 110 103 109 111 124 130 137 146 156 174 178 182 193 230 134 149 130 143 148 142 152 146 146
142 151 149 152 152 151 149 149 148 146 145 142 138 137 131 122 113 119 124 118 118 126 114 109 123 136 150 169 180 195 200 201 91 222 188 166 178 157 164 162 151 153 156
143 151 153 154 153 155 156 149 147 148 148 146 145 137 124 121 120 126 118 106 125 128 142 168 202 165 170 216 210 234 220 191 42 217 142 144 204 169 163 158 164 168 173
144 149 152 155 157 158 147 149 151 152 150 145 141 132 126 129 137 123 94 120 150 146 194 198 219 217 209 211 247 250 259 231 80 139 130 152 213 170 176 173 175 177 185
145 152 151 159 159 143 153 159 158 160 156 150 136 119 106 101 109 92 65 25 236 195 211 207 229 231 225 222 225 261 261 261 111 194 189 176 204 179 190 195 188 186 199
144 154 154 148 139 142 154 166 166 167 160 149 134 127 120 126 138 97 73 54 269 225 219 247 236 234 242 234 234 245 253 109 164 172 179 179 193 193 209 207 208 198 205
160 164 162 152 153 151 160 147 134 145 92 96 103 113 158 159 185 147 26 48 87 225 220 244 248 238 247 236 285 253 114 191 177 183 200 224 227 221 218 213 220 212 211
168 168 173 160 160 161 148 142 135 129 105 120 172 213 227 200 181 287 86 36 73 46 333 258 259 235 225 203 204 238 193 190 194 191 179 217 233 221 222 218 221 225 214
173 176 173 167 165 169 155 162 166 151 168 179 215 238 229 250 264 183 101 198 161 63 313 254 225 232 227 231 212 224 226 211 220 224 203 234 260 226 223 219 220 226 222
181 176 179 166 173 165 166 158 165 182 178 192 201 218 210 211 242 297 12 212 277 285 252 263 227 233 228 217 218 198 233 231 207 224 200 213 232 225 230 229 223 227 226
172 173 165 175 175 165 170 176 174 186 190 187 199 217 221 222 208 229 234 224 231 253 218 244 240 228 223 216 218 226 215 211 216 216 232 223 212 222 232 238 235 236 232
180 164 169 173 175 168 168 184 180 195 193 195 210 207 214 210 236 249 236 257 242 218 244 260 246 253 244 221 235 221 216 201 216 234 221 195 224 218 220 232 245 237 231
166 176 165 177 177 161 164 184 189 199 192 205 210 220 213 206 224 237 211 244 243 225 221 244 255 266 204 222 237 261 221 197 189 230 266 274 234 229 223 224 234 238 229
169 170 167 175 175 167 173 181 198 197 200 208 205 205 206 202 215 206 215 217 225 211 252 252 255 214 259 254 249 167 151 39 341 261 233 246 258 251 231 230 226 230 230
174 168 170 171 173 170 163 176 201 217 215 215 223 219 217 198 200 201 215 210 202 235 245 246 234 243 185 226 273 191 233 185 187 223 265 248 230 241 231 226 227 228 229
172 168 174 158 158 154 171 183 201 219 226 243 211 225 221 225 216 201 201 195 195 220 230 226 187 24 308 282 30 234 249 248 236 224 240 250 223 235 222 226 221 212 226
175 178 174 170 167 177 182 188 167 167 196 214 200 227 236 245 217 209 204 203 213 207 231 239 185 139 239 205 199 78 303 321 284 196 238 230 252 257 258 230 218 211 207
178 180 180 182 182 189 192 155 84 89 72 208 235 238 208 270 357 345 301 241 222 210 230 216 207 199 220 239 226 170 158 234 337 290 243 196 195 151 275 232 207 221 199
187 180 179 188 188 198 195 197 183 180 183 212 188 169 96 109 134 193 153 140 285 258 229 224 212 204 170 221 240 220 142 112 171 325 290 271 291 342 343 309 210 217 203
177 180 183 184 195 202 196 202 206 197 211 140 151 134 118 177 227 209 182 181 216 206 255 236 247 221 169 151 239 211 90 100 164 208 279 312 359 295 256 264 267 254 217
195 176 179 178 187 200 194 195 189 213 213 151 174 174 159 204 235 267 227 182 207 219 220 235 247 253 189 192 224 220 192 182 209 173 272 312 254 293 267 234 249 249 221